Theta_e
290 288 287 287 289 289 288 287 285 282 286 284 282 279 281 281 281 282 283 287 285 288 286 285 285 285 288 290 292 293 289 288 288 289 290 290 290 291 291 292 293 293 295 295 294 295 295 295 295 296 298 302 305 308 310 311 313 315 316 316 317 319 320 322 324 324 325 324 324 325 326 326 327 327 329 329 330 331 332 332 333 331 330 329 326 323
291 287 286 288 289 289 286 284 285 285 283 285 282 282 281 282 284 285 288 286 286 288 284 281 284 286 287 289 290 291 287 289 291 291 290 291 290 290 290 291 292 293 292 292 294 293 292 292 293 293 294 297 300 304 308 310 313 314 315 316 317 316 318 320 323 324 325 326 326 325 326 326 327 325 325 327 328 329 328 330 331 332 332 330 328 324
287 287 289 288 285 285 283 283 283 284 283 281 283 280 282 282 281 284 285 285 286 288 283 281 285 289 290 291 291 290 291 290 289 289 290 290 291 290 290 290 291 291 292 291 292 290 291 291 291 292 294 296 300 301 305 309 309 310 313 315 316 316 318 319 321 322 322 324 323 324 321 325 322 320 324 326 324 325 327 327 329 330 331 332 331 327
285 286 288 285 286 288 284 283 285 283 282 282 281 283 282 282 285 284 284 285 285 285 286 284 285 289 289 286 287 288 289 289 288 288 289 289 290 291 292 291 291 291 292 292 291 291 289 289 290 290 293 295 296 298 300 305 309 311 311 314 315 316 317 318 319 317 319 315 315 313 311 315 319 317 315 317 317 322 324 325 327 328 329 330 329 329
285 286 286 286 286 289 286 284 285 285 285 282 281 280 281 284 282 282 285 284 281 285 283 283 285 285 280 281 281 285 282 282 285 283 285 288 289 290 290 290 291 291 291 291 292 292 290 290 291 292 293 293 296 298 301 304 307 311 311 313 314 314 315 315 314 316 312 311 309 307 308 309 310 310 312 315 318 320 320 322 323 326 326 327 328 330
286 286 285 286 285 284 285 283 283 286 282 285 282 283 283 282 284 284 283 284 278 282 281 282 280 276 278 280 281 282 282 286 284 284 287 287 284 285 287 290 290 290 289 291 293 293 291 290 290 289 289 291 294 296 298 299 304 306 308 309 310 310 310 313 312 313 313 314 315 312 314 313 310 313 310 314 317 318 318 321 322 322 323 324 326 327
284 287 286 287 287 285 285 284 283 285 281 283 286 284 282 283 284 282 282 281 279 279 282 280 280 274 278 281 283 281 281 285 286 283 286 285 286 284 286 288 287 288 289 288 289 289 289 290 289 291 291 291 293 295 295 297 301 303 304 306 308 310 308 308 308 310 311 311 312 314 316 317 316 315 314 309 310 317 318 319 319 321 320 323 324 324
287 286 285 286 286 285 284 283 285 286 284 285 283 281 283 285 284 282 281 282 279 279 282 278 275 278 278 283 281 280 282 285 285 286 286 286 285 287 287 287 286 286 286 287 288 289 288 289 290 292 292 292 294 293 293 295 297 301 303 303 305 304 305 304 306 308 311 313 312 311 312 313 314 313 314 309 308 304 306 314 318 318 318 319 321 323
287 286 285 285 284 284 286 283 284 285 283 283 283 282 282 283 281 279 280 279 279 281 280 276 283 279 276 280 281 280 285 283 285 285 284 286 288 288 288 290 288 285 284 285 287 288 289 291 292 291 292 292 292 292 294 295 296 297 299 300 301 302 302 302 305 307 308 311 312 312 311 311 310 310 308 300 301 305 302 307 310 315 317 316 317 319
288 288 287 288 287 285 284 284 283 286 287 285 282 283 282 281 281 280 277 280 279 278 271 278 280 275 277 278 279 279 283 283 284 283 285 286 287 288 290 291 291 290 289 287 287 288 289 291 291 290 290 291 291 291 293 294 295 296 296 299 300 301 300 301 303 305 306 307 307 309 308 309 310 306 302 300 301 301 299 305 306 310 313 314 314 314
288 289 290 287 287 285 285 284 284 283 286 286 283 286 283 280 279 277 277 275 275 271 274 276 276 278 276 279 281 283 283 282 280 283 286 286 287 288 288 289 289 290 290 288 288 287 288 288 289 289 291 290 290 290 291 292 293 294 296 296 299 299 297 298 302 303 305 305 305 308 308 308 309 306 304 302 301 298 296 302 303 306 309 311 313 313
287 288 289 287 286 284 285 286 285 284 283 285 283 280 284 281 277 277 271 274 272 267 271 275 277 277 275 275 281 282 281 280 285 289 289 288 289 289 289 289 289 289 289 289 289 290 289 291 290 289 291 290 290 291 291 291 292 293 294 294 298 297 297 296 298 299 302 302 304 304 306 307 307 306 305 305 306 303 303 302 302 300 301 305 307 308
286 288 286 289 288 288 286 288 286 286 282 284 282 284 277 271 269 274 267 273 271 267 278 276 277 278 278 280 284 285 285 284 282 285 287 290 289 289 289 289 288 288 288 289 290 290 292 290 290 291 291 290 290 290 290 291 291 292 293 294 297 297 295 295 296 298 299 299 302 303 304 304 304 304 304 305 305 304 303 303 301 299 300 298 300 304
283 282 286 289 289 289 289 287 284 285 283 282 285 279 274 270 267 265 259 261 266 271 275 278 277 277 278 280 286 289 289 285 285 284 284 285 286 287 288 288 287 288 287 288 287 288 290 290 291 290 290 289 289 288 289 289 290 291 294 293 295 296 293 293 295 297 297 299 301 300 302 303 303 303 303 304 305 304 303 302 302 302 302 301 301 302
278 279 286 289 286 288 289 288 290 287 285 285 282 284 280 269 266 265 263 271 271 271 273 274 274 273 276 282 286 284 285 284 283 284 283 282 283 285 285 284 284 285 286 285 287 291 291 292 290 292 291 290 289 290 290 289 290 291 294 293 294 294 293 293 295 295 297 299 298 298 299 301 300 302 302 303 303 302 301 300 301 301 301 301 301 301
284 280 283 286 287 289 290 288 287 286 285 282 279 281 278 277 274 270 266 265 263 269 270 272 275 276 281 284 284 284 283 285 284 284 284 286 284 282 284 285 287 288 289 289 290 292 292 291 291 291 291 290 290 289 288 290 290 291 292 292 292 293 294 292 292 294 297 298 297 296 298 299 299 299 299 299 297 300 300 300 300 301 300 301 301 299
281 281 285 285 286 288 288 287 288 287 284 284 282 278 279 279 279 270 268 270 270 267 271 269 276 280 280 284 285 280 283 285 281 284 285 284 281 282 287 286 287 289 290 291 293 292 292 291 291 292 292 292 291 292 293 292 290 292 291 291 293 293 291 292 292 294 294 295 294 296 296 297 297 298 299 300 300 299 298 298 299 299 300 298 297 298
283 280 285 286 287 288 287 286 285 284 285 283 279 280 281 280 279 276 272 264 261 268 271 271 275 276 275 279 281 281 286 285 283 285 281 282 284 287 289 289 290 291 291 291 291 291 291 291 292 293 293 292 293 292 292 293 291 290 291 292 293 293 293 293 292 292 293 294 295 295 296 296 297 298 299 299 299 298 297 297 297 295 296 297 298 297
285 281 284 284 285 287 286 289 288 287 286 283 280 284 284 278 276 276 271 268 266 265 266 269 272 273 276 280 279 282 284 285 284 284 284 286 286 289 291 293 292 291 291 293 293 293 294 293 293 292 292 293 292 291 290 290 290 290 290 291 291 294 294 293 293 292 292 293 295 296 296 296 297 297 297 297 297 295 297 297 297 297 298 295 293 295
286 281 280 285 285 287 287 286 284 284 286 285 285 283 284 279 275 273 275 269 272 266 263 268 267 276 277 278 280 285 282 285 283 283 284 285 287 289 291 292 292 292 292 292 293 293 292 292 292 290 291 292 292 292 291 292 293 294 293 292 293 293 292 291 291 291 292 292 293 295 294 294 295 296 296 296 296 296 297 298 297 297 294 296 295 295
284 281 276 283 286 286 284 284 284 286 282 281 281 281 284 279 281 279 276 273 274 263 262 265 269 272 277 279 281 285 283 281 282 285 284 287 288 289 290 292 292 291 292 292 292 290 291 290 290 290 288 289 288 288 290 291 291 292 292 293 293 293 294 294 293 292 293 291 293 292 293 294 293 294 294 294 294 295 296 296 295 295 295 291 294 292
284 281 279 281 282 282 282 284 284 286 287 286 286 283 286 280 277 275 277 276 266 271 268 262 273 270 279 280 284 282 282 282 282 285 288 286 287 287 290 291 289 291 292 289 288 287 288 288 289 288 288 287 288 291 290 290 290 292 292 292 291 291 292 293 294 293 293 291 291 291 293 292 291 292 291 292 293 293 294 294 293 293 289 291 293 289
286 282 282 277 282 285 286 286 283 284 285 285 285 284 286 284 280 273 273 273 271 274 269 266 269 275 282 281 281 281 281 281 282 285 288 287 287 288 290 288 287 288 289 289 288 288 288 289 288 287 287 288 288 289 288 289 290 291 290 289 289 289 292 292 292 292 291 292 292 292 291 290 290 289 289 290 292 291 292 292 289 288 290 291 291 288
290 282 280 279 279 281 284 284 285 285 287 287 285 281 283 284 283 280 273 274 279 271 272 269 267 275 278 280 281 281 280 279 283 285 290 289 289 288 289 289 287 286 286 286 287 288 288 286 287 290 291 292 292 291 290 289 288 289 288 288 288 289 290 290 291 290 290 290 290 290 289 290 289 288 288 288 290 290 290 290 289 288 289 290 289 290
284 283 284 274 273 277 279 284 283 284 286 281 282 282 284 282 278 277 275 274 274 275 276 275 273 275 281 281 283 283 285 285 287 286 287 291 288 288 287 286 285 286 287 287 288 288 289 289 289 289 289 289 289 288 288 288 289 288 289 289 290 290 290 290 288 288 289 288 289 290 289 289 288 287 288 289 289 289 289 289 288 287 289 289 289 290
287 283 283 277 276 275 274 275 279 282 284 282 279 281 283 284 280 280 278 274 274 273 277 272 276 277 279 282 285 285 285 287 287 287 285 286 287 287 288 287 286 287 288 287 288 287 287 288 288 289 289 289 289 289 289 288 288 288 288 289 288 289 289 290 287 288 288 288 288 290 289 288 287 288 288 288 288 289 289 288 287 288 288 288 290 290
281 282 284 285 283 281 283 283 284 285 282 282 282 283 283 284 283 283 279 275 278 277 275 279 282 281 281 283 284 286 283 288 289 287 288 288 286 285 285 286 287 287 286 286 286 287 288 287 288 289 290 289 289 288 288 288 289 289 289 289 288 288 287 288 287 288 287 287 286 287 288 288 288 288 288 288 288 288 288 288 287 287 288 288 288 289
280 283 284 284 284 285 283 281 283 288 284 285 283 282 284 284 283 284 282 282 284 276 275 281 282 281 284 281 283 285 285 285 288 289 288 286 285 288 289 286 288 286 286 287 288 289 288 288 288 289 288 288 288 288 289 288 288 288 288 288 289 288 287 288 287 288 287 286 287 287 288 288 287 287 288 288 287 288 287 287 287 287 287 286 288 288
283 282 284 282 283 283 281 281 283 286 286 286 286 284 283 284 283 283 284 286 283 281 281 284 282 282 285 285 287 287 288 289 289 290 289 287 287 286 287 288 286 286 286 287 287 287 287 288 287 287 287 287 287 288 288 288 288 288 288 288 288 288 288 287 287 288 288 288 288 289 288 287 287 287 287 287 287 287 287 287 287 287 287 286 287 288
286 279 281 282 283 283 281 281 282 285 283 283 284 285 285 284 284 285 286 287 285 284 286 285 282 284 288 286 288 289 289 289 288 286 286 287 288 289 286 286 285 286 286 286 287 287 287 287 286 286 286 287 287 287 287 288 288 287 287 288 288 288 288 287 287 287 288 288 288 288 288 287 287 287 286 286 287 287 287 287 287 286 286 287 287 287
286 280 285 281 278 280 281 280 281 282 283 282 281 283 284 285 285 286 287 287 286 285 285 284 281 282 286 285 288 288 286 286 288 288 288 287 287 286 287 286 285 286 287 287 287 286 285 286 286 286 286 286 286 286 286 286 286 286 287 288 287 287 287 286 286 287 287 288 288 288 287 287 287 287 287 287 286 286 287 287 286 286 286 286 286 287
285 279 281 279 278 275 279 281 281 279 281 280 280 281 283 283 282 284 284 286 284 283 285 284 283 284 288 286 288 287 285 288 289 290 288 288 286 285 287 285 285 286 286 286 285 285 286 286 286 286 286 286 286 286 286 286 286 286 287 287 287 287 286 286 286 286 287 287 287 287 287 287 287 287 287 287 287 287 287 286 286 286 286 286 286 286
284 283 281 277 277 277 278 280 279 278 278 275 279 283 284 285 286 287 287 286 287 289 285 282 284 291 287 288 287 286 288 288 288 288 287 287 285 284 286 287 287 285 286 286 287 286 285 285 284 284 284 284 285 286 285 285 285 287 287 286 286 285 285 286 285 286 286 287 287 287 287 286 286 286 287 287 287 287 287 286 286 286 287 287 287 285
283 284 280 281 278 274 276 279 279 277 274 276 287 289 287 285 285 284 284 287 288 288 288 290 288 285 285 285 288 288 288 289 289 288 287 289 288 285 285 285 285 285 284 284 284 285 285 283 283 284 284 284 284 283 284 283 284 286 285 285 285 284 285 285 286 285 286 286 286 286 286 286 286 286 286 286 286 286 286 286 286 286 286 286 286 285
285 285 282 280 280 278 276 278 278 275 277 287 284 287 290 289 288 287 288 289 289 289 289 288 287 285 287 288 289 290 288 286 285 286 285 285 286 287 286 285 285 285 285 285 285 284 284 284 284 284 284 284 284 283 283 284 283 284 284 284 284 284 285 285 285 286 286 286 286 286 286 286 286 285 286 286 286 285 286 286 286 286 286 286 286 286
285 285 283 282 281 282 278 278 275 277 283 284 285 285 285 287 286 285 285 287 287 287 289 288 290 290 288 288 287 287 286 285 285 285 285 285 284 286 286 287 285 285 285 285 286 285 284 284 284 284 284 284 284 284 283 284 284 284 284 283 283 284 284 284 284 285 286 286 286 286 286 285 285 285 285 285 285 285 285 286 286 286 286 286 286 285
289 287 285 283 285 280 279 280 280 283 282 285 285 285 287 285 285 285 283 286 290 289 289 289 290 290 288 288 285 284 284 285 285 286 286 284 286 284 286 286 285 285 285 285 283 285 284 283 283 284 283 283 282 283 284 284 284 284 284 284 285 284 284 285 285 286 286 286 286 286 286 285 285 285 285 285 285 285 285 285 286 286 284 285 285 285
291 287 287 285 283 286 283 280 279 280 278 284 288 285 289 288 291 291 288 287 288 290 291 290 290 290 289 285 285 285 287 287 284 284 286 284 283 285 285 284 283 284 284 284 283 282 283 283 283 283 283 282 283 283 283 282 283 283 284 284 284 284 284 284 285 285 285 285 285 285 285 285 284 284 284 284 284 285 285 285 285 285 284 284 285 286
290 291 287 286 284 284 283 280 280 279 282 287 286 287 288 289 291 289 286 284 288 287 290 290 290 289 288 285 284 286 288 286 285 286 287 284 284 284 285 284 283 284 284 284 285 285 283 283 283 282 282 282 284 285 283 283 282 283 283 283 283 283 283 283 284 285 285 285 285 285 284 284 284 283 283 284 284 284 284 285 285 285 284 284 283 284
287 288 287 285 283 285 284 282 280 284 283 284 283 282 284 286 292 290 280 281 287 286 289 290 291 289 287 286 286 287 288 286 286 286 286 285 284 283 284 285 285 284 284 282 282 282 283 282 284 284 284 284 285 284 283 282 283 282 282 283 282 282 282 283 284 284 284 284 284 284 283 283 283 283 283 283 283 284 284 284 283 283 283 283 283 283
285 284 286 282 284 284 285 282 284 283 286 285 284 283 284 288 291 284 280 287 288 286 287 291 291 288 287 286 287 287 284 284 285 287 284 283 283 283 283 283 284 284 284 282 283 283 282 282 282 282 282 283 283 283 282 282 281 282 282 281 281 282 283 283 283 283 283 283 283 283 283 283 282 282 282 282 282 282 282 282 282 283 282 282 282 281
284 285 284 286 283 282 283 282 282 284 286 287 283 284 286 289 282 281 287 284 284 284 283 286 286 286 287 287 286 285 285 284 284 283 283 284 284 283 283 283 282 282 281 281 281 281 282 281 282 282 282 282 282 282 281 279 279 281 281 281 281 282 283 282 283 282 282 282 282 282 282 282 282 281 281 281 281 280 281 282 281 281 280 280 280 280
284 284 280 282 284 285 283 281 280 277 286 287 286 286 287 283 283 285 284 283 283 284 285 285 286 285 286 284 285 286 285 285 285 285 284 283 283 283 282 282 282 283 282 282 281 280 281 281 281 282 282 283 282 282 280 277 277 279 280 280 282 282 282 282 282 281 281 281 281 281 281 281 281 281 281 280 280 279 279 280 280 280 280 278 278 279
288 283 282 284 287 280 281 279 280 286 286 288 291 285 286 287 286 285 286 284 284 282 284 285 283 282 284 286 284 283 284 284 284 283 284 283 281 282 282 282 281 280 280 280 280 280 279 279 280 281 281 282 282 281 280 277 278 278 278 280 282 282 282 282 282 281 280 280 280 280 280 281 281 281 280 279 278 278 278 279 280 279 280 278 278 278
288 285 287 283 287 285 282 285 287 286 288 288 285 286 287 288 286 287 287 287 285 283 280 285 284 282 284 285 284 284 283 283 284 284 284 283 282 281 281 281 282 281 281 280 280 279 278 278 278 279 278 280 279 279 277 276 276 278 277 280 280 281 281 281 281 280 279 280 280 280 280 280 280 280 280 279 277 277 279 279 279 279 280 278 277 278
283 286 285 286 285 285 286 284 285 283 285 285 284 284 284 285 285 285 286 285 283 283 283 286 284 283 283 285 285 283 283 283 282 282 282 282 281 280 280 280 280 280 280 280 279 278 277 276 274 274 275 275 275 277 277 276 275 277 279 280 280 280 280 280 279 279 279 279 279 279 279 279 280 280 279 278 277 277 277 277 278 278 279 279 278 278
282 283 285 284 284 286 282 284 283 283 281 282 283 284 283 284 284 285 285 285 284 283 282 283 284 285 285 284 285 284 283 282 282 280 280 280 279 279 279 280 279 278 277 276 277 277 276 274 274 274 274 275 275 276 277 276 277 276 278 278 278 278 278 278 278 278 278 278 278 279 279 278 279 279 279 279 277 277 276 276 276 276 277 278 278 278
282 283 284 282 282 284 281 282 281 280 279 280 282 284 283 282 282 283 284 284 284 283 284 283 284 283 283 283 283 283 281 280 280 279 279 278 278 279 278 277 276 275 275 274 274 273 272 272 272 272 273 274 275 275 275 275 275 275 275 275 276 276 276 276 276 277 277 278 278 278 278 278 278 278 278 279 278 278 278 277 276 276 277 278 279 278
281 285 277 282 283 280 281 281 280 280 281 282 282 283 283 282 282 282 283 283 283 282 281 280 281 281 281 280 280 280 279 279 278 278 278 277 277 276 275 275 274 273 272 272 272 271 271 270 271 271 271 272 273 273 272 272 272 273 273 273 274 274 274 275 276 276 276 277 277 277 278 278 278 278 278 278 278 278 278 278 278 278 278 279 279 279
282 281 279 281 274 275 278 281 280 279 275 282 282 283 282 282 282 281 282 282 282 281 280 278 277 277 278 278 278 278 278 277 276 275 274 275 274 273 273 272 272 270 270 270 270 269 269 269 269 269 270 270 271 270 270 270 270 271 271 272 272 273 273 274 275 275 275 276 276 277 277 277 278 278 278 278 278 278 278 279 281 280 278 279 280 282
284 283 281 280 280 278 283 283 284 284 283 284 285 283 281 281 282 282 282 281 280 281 280 278 276 276 275 275 276 276 276 275 273 272 271 271 271 271 271 270 269 269 268 269 268 268 268 268 268 268 267 268 268 268 268 268 268 269 270 271 272 272 272 273 274 274 275 275 275 276 277 277 277 277 278 278 277 277 277 277 279 282 283 283 281 282
Wind_Speed
1 6 7 9 8 8 6 4 4 3 6 5 4 4 4 5 1 2 2 1 0 1 3 4 5 5 11 11 11 13 1 4 6 9 9 8 8 8 7 8 9 9 14 2 4 5 5 5 5 5 5 7 7 7 8 9 10 11 12 10 13 11 9 9 9 8 9 9 8 7 9 10 6 6 6 7 6 5 6 7 9 9 7 8 9 9
3 5 8 7 6 7 5 7 8 8 4 6 5 5 1 1 2 0 0 2 2 1 1 1 2 8 11 11 12 9 5 10 10 11 10 11 9 8 8 10 10 12 5 5 7 5 4 5 5 4 5 5 6 10 9 12 14 11 9 10 11 6 9 10 11 10 9 10 10 10 10 8 7 6 7 7 6 7 5 6 8 9 10 9 8 8
3 10 8 5 4 9 6 5 4 6 5 3 5 3 3 3 2 3 1 2 3 1 5 1 4 9 11 11 11 8 10 7 5 5 7 6 8 8 8 10 10 7 11 5 7 5 5 5 5 4 5 6 10 7 9 9 6 7 9 11 9 8 10 10 10 9 11 9 7 8 5 7 4 3 5 6 4 5 6 6 7 7 7 9 11 12
3 6 7 5 7 9 3 4 8 7 6 6 5 4 6 2 3 2 3 1 3 2 2 1 5 11 7 7 11 10 7 7 6 7 9 8 10 12 11 8 7 9 9 9 6 6 4 4 5 4 5 6 4 5 5 7 10 8 8 10 10 10 9 9 9 10 7 4 3 1 1 2 4 4 3 3 3 4 6 8 7 7 7 7 7 7
6 1 0 9 5 9 6 1 5 5 2 1 3 3 3 2 2 2 2 0 1 1 2 2 4 8 3 5 5 2 3 4 5 5 6 9 9 9 8 9 8 10 7 9 8 8 6 5 5 5 4 2 5 7 7 7 8 7 9 8 7 6 6 5 5 7 4 5 4 3 4 3 2 2 2 3 5 6 6 6 7 9 7 7 7 8
3 1 4 8 4 4 6 3 4 8 1 0 4 6 5 5 6 0 1 2 3 2 4 2 3 3 3 7 8 8 8 9 3 5 9 6 4 4 7 10 6 7 6 8 10 7 3 5 6 5 4 3 5 6 4 4 5 5 6 6 6 5 5 6 5 5 6 6 7 6 6 5 4 6 5 9 11 8 8 10 7 5 7 7 7 7
3 1 1 6 7 4 5 5 5 6 6 3 4 4 3 6 6 6 4 3 0 1 2 2 2 5 6 4 4 4 7 11 9 4 8 7 7 5 7 7 7 7 7 5 6 5 5 5 4 6 5 4 4 5 3 4 5 5 5 5 5 5 4 4 4 5 6 5 6 9 10 10 10 10 8 6 5 7 7 5 6 6 6 8 9 8
2 1 4 4 5 5 5 4 4 9 8 5 1 5 7 7 7 5 5 2 1 1 1 4 3 1 7 8 5 5 6 10 9 9 8 7 7 7 6 6 6 7 5 5 5 5 4 4 4 5 4 4 5 4 2 3 3 4 4 4 4 4 4 4 5 6 7 8 7 7 8 8 8 9 9 6 6 4 4 6 7 6 6 7 8 8
2 4 4 5 2 4 7 4 4 6 7 2 2 5 4 6 4 5 5 5 0 1 5 4 1 0 4 8 4 3 3 5 7 7 7 8 7 6 6 5 4 4 5 4 4 3 4 4 4 2 3 4 4 3 2 2 2 2 2 3 3 4 4 4 5 7 6 7 8 8 7 7 7 6 5 3 3 5 4 5 5 6 6 6 6 7
2 2 4 5 6 6 2 1 1 5 4 1 6 7 7 7 6 4 4 4 1 1 4 3 1 2 8 7 5 3 1 7 8 6 5 5 5 5 5 5 5 4 2 1 3 3 3 3 4 3 2 2 3 3 1 1 1 2 3 4 4 4 4 4 5 6 6 6 5 6 6 8 8 5 4 2 3 4 4 6 5 6 6 6 6 5
1 4 4 3 2 2 4 2 1 2 1 9 4 7 6 8 4 3 6 2 3 1 5 3 4 1 4 5 5 3 4 4 2 2 2 3 4 4 2 2 3 3 3 3 2 1 2 3 3 3 4 3 3 3 3 3 3 2 3 4 4 3 3 4 5 6 7 5 5 7 7 9 8 6 5 4 5 4 4 6 6 6 6 5 6 5
1 1 1 0 3 3 3 5 5 3 4 4 3 4 6 4 6 4 5 5 1 5 4 1 1 0 6 5 4 6 5 4 2 3 1 4 5 7 6 7 7 5 4 3 2 4 3 3 4 4 6 5 4 4 4 3 3 2 2 3 3 1 3 3 4 4 4 5 6 6 6 7 8 6 6 8 9 8 8 7 7 5 4 5 5 4
1 2 1 3 3 6 3 9 5 2 4 5 6 7 6 2 4 2 3 2 4 5 1 3 1 1 8 10 7 8 8 5 6 5 3 2 6 7 7 8 6 5 5 6 5 5 5 5 5 6 5 4 5 4 3 3 2 1 2 2 3 4 2 3 3 4 4 5 6 7 7 7 6 6 7 8 8 6 7 6 6 5 7 5 5 6
4 2 1 1 2 3 5 10 2 1 1 4 8 7 6 2 1 2 2 1 5 5 4 1 1 3 4 9 11 15 9 4 5 6 7 5 5 8 8 7 8 7 5 4 4 4 4 5 5 4 4 3 3 3 2 2 1 0 1 1 3 4 3 3 4 4 5 6 6 5 6 6 6 7 7 7 8 7 6 6 7 7 7 7 9 8
4 4 6 7 2 3 1 3 10 8 9 7 1 7 8 8 5 3 3 4 5 4 3 3 1 6 3 2 1 4 5 5 5 5 5 4 7 8 6 7 6 5 4 4 4 5 5 5 5 5 4 4 3 2 1 1 0 0 1 1 2 3 3 3 4 4 5 6 6 5 5 6 5 7 6 7 6 5 6 6 7 7 6 7 7 8
9 4 3 2 1 3 8 1 4 6 5 0 3 5 5 6 6 1 4 3 1 0 1 1 5 4 4 1 6 5 5 6 4 4 3 4 4 4 5 3 2 1 2 3 5 6 5 4 3 4 4 4 3 3 3 2 1 1 1 1 3 4 3 3 4 5 5 5 4 4 5 7 6 5 5 5 5 6 6 7 7 7 7 7 6 5
3 4 1 6 3 2 1 0 0 2 8 4 4 4 4 2 10 7 1 1 1 4 6 2 7 6 8 8 5 2 3 5 3 1 0 2 3 3 1 3 3 2 3 4 6 5 5 4 4 3 3 4 5 6 6 5 4 3 4 4 4 4 4 4 4 4 4 4 4 5 5 5 5 6 7 8 7 7 6 6 6 6 7 5 4 5
9 3 2 3 1 1 0 1 2 5 2 9 2 7 2 2 5 5 3 2 4 3 7 2 8 5 2 7 5 2 0 3 2 1 1 1 1 3 1 1 2 3 3 2 3 3 4 5 5 5 5 5 5 5 6 6 4 3 2 3 4 4 4 4 4 4 4 4 5 5 5 5 6 7 7 7 7 6 6 6 6 5 6 6 6 5
7 3 1 1 0 4 2 0 4 2 3 3 3 4 5 2 1 2 4 1 1 2 5 3 2 4 6 7 4 1 6 7 5 1 1 4 3 2 3 1 2 2 5 6 6 5 5 5 5 5 5 3 4 3 4 4 4 3 3 2 3 6 5 5 4 4 3 4 5 4 5 5 6 6 6 5 5 5 6 8 7 7 8 5 4 5
1 5 2 1 2 1 1 3 9 3 3 2 3 4 0 3 2 4 6 3 5 4 2 7 3 6 7 6 9 8 8 9 5 1 2 2 4 3 3 1 4 6 6 6 6 5 5 6 6 5 6 8 8 8 8 7 7 9 7 6 6 5 4 4 4 4 4 4 4 5 4 5 5 5 5 6 6 7 8 8 6 6 5 8 6 6
4 1 3 1 2 2 3 4 9 10 9 3 3 2 0 2 2 5 1 3 4 5 5 2 6 5 7 7 5 9 6 4 6 6 4 5 5 4 2 2 3 4 5 4 4 4 4 5 6 7 6 5 5 4 5 6 7 6 6 7 7 8 10 7 5 4 4 4 4 4 5 6 4 5 5 5 5 7 7 6 5 5 6 4 7 5
3 2 7 2 2 4 5 1 1 6 5 8 11 11 12 9 4 4 7 3 2 3 4 4 10 4 9 2 6 4 6 6 7 8 8 6 5 4 2 1 1 2 3 3 4 3 2 3 5 6 7 5 6 8 9 8 7 8 8 7 7 7 5 7 8 5 5 4 4 4 5 5 4 4 4 5 5 7 7 6 5 5 5 6 6 5
4 3 8 4 7 7 1 0 2 1 1 2 3 7 7 3 6 4 7 6 3 1 4 3 1 10 7 2 3 5 4 4 7 7 8 6 5 5 2 0 1 3 4 4 4 4 2 3 5 5 5 6 6 6 6 7 8 8 8 8 7 7 9 6 7 6 5 6 5 6 5 5 5 4 4 5 6 6 7 6 5 5 6 7 6 5
4 4 4 1 2 3 2 1 1 0 1 1 3 1 6 10 7 7 3 6 8 2 1 1 1 8 4 1 5 5 4 2 2 6 10 5 5 3 1 0 1 2 2 3 4 4 6 5 5 6 7 9 8 8 8 6 6 6 5 6 5 6 8 8 7 7 6 6 7 6 5 5 5 5 5 5 6 6 7 6 6 4 6 7 5 7
5 3 8 3 2 3 4 2 2 2 1 4 4 5 4 3 5 2 5 1 2 9 8 9 8 7 3 3 1 1 0 4 6 4 3 9 4 2 2 2 2 2 2 2 2 4 4 2 1 1 1 3 1 3 5 5 5 5 6 6 7 7 6 6 6 6 6 5 7 7 6 6 5 5 6 7 6 7 7 6 6 5 6 6 7 7
5 5 9 7 10 9 8 7 12 13 13 3 0 2 5 9 7 5 4 1 5 3 7 5 8 4 3 2 3 1 1 2 2 3 2 1 3 3 2 3 2 1 0 1 0 0 2 2 2 2 6 5 3 6 5 5 4 5 5 5 5 6 8 7 7 6 7 6 6 8 7 6 6 5 6 7 7 7 6 6 5 6 5 6 8 7
3 1 6 10 14 14 15 8 2 9 5 7 5 8 4 4 6 4 5 4 10 5 7 8 9 4 3 1 1 5 5 9 7 5 8 6 4 4 4 4 3 3 2 2 3 5 6 4 2 2 9 11 10 8 6 6 6 5 5 5 4 4 4 5 5 5 5 5 4 5 6 6 6 6 6 6 7 6 6 6 6 5 7 6 7 7
3 4 8 8 11 11 3 3 5 8 7 7 9 9 10 10 10 9 10 14 8 7 8 9 9 8 12 4 6 7 7 6 6 7 7 4 3 4 5 1 0 1 1 2 4 6 6 6 8 9 9 11 10 7 7 5 5 6 6 7 6 5 5 6 6 5 4 4 4 4 6 6 5 5 6 6 5 6 6 6 6 6 6 5 7 8
5 7 5 5 8 7 2 3 6 6 9 10 13 12 12 12 10 13 15 17 6 9 17 11 8 9 12 10 11 13 12 12 13 13 8 4 2 3 0 3 4 3 3 6 4 4 5 6 6 8 9 8 8 8 8 8 8 7 7 6 6 6 7 6 6 7 7 7 6 6 5 5 5 5 5 5 5 6 6 6 6 5 5 5 6 6
3 5 5 5 8 8 4 5 4 8 5 3 8 12 15 15 16 17 18 18 15 13 14 9 11 17 15 10 13 12 11 9 5 1 1 1 3 2 1 3 3 3 4 4 4 5 6 6 7 8 7 8 7 7 8 8 8 7 7 8 8 7 7 7 6 6 7 7 7 7 7 6 6 6 5 5 6 6 6 6 6 5 6 6 6 6
5 5 5 4 4 6 5 3 2 5 6 6 5 7 10 13 16 19 18 19 14 13 10 7 4 12 7 6 8 3 4 2 1 2 5 4 4 3 4 4 3 4 4 5 5 5 4 6 8 8 7 6 7 6 6 6 6 6 6 7 7 8 7 6 7 7 7 8 7 7 6 6 7 7 7 7 6 6 6 6 5 5 6 6 6 7
4 3 2 3 5 5 2 8 7 2 1 2 4 5 9 12 13 13 14 9 7 9 12 10 12 16 8 9 5 2 4 6 7 7 3 4 5 5 6 5 5 4 4 4 3 4 7 8 8 7 6 6 6 6 6 8 7 6 8 8 8 8 7 7 6 7 8 7 7 7 8 7 8 8 9 8 8 8 7 7 6 6 6 6 7 6
5 6 5 4 6 6 1 4 5 5 3 3 9 13 19 17 15 12 10 7 12 15 14 10 15 19 5 9 7 3 7 8 9 7 3 3 4 5 5 6 6 4 4 4 6 7 6 5 4 4 4 4 4 6 6 6 7 8 8 9 8 7 6 6 6 6 7 7 7 8 8 8 9 9 9 9 9 8 8 8 8 8 8 8 7 5
3 5 5 3 5 2 2 5 5 6 8 12 11 17 16 17 17 13 10 16 18 13 11 16 10 0 6 6 11 9 11 9 8 6 3 6 8 5 5 5 5 4 4 4 3 2 3 2 2 3 2 3 3 3 4 4 4 6 6 6 6 6 6 7 8 6 7 7 8 8 7 7 8 9 9 8 8 8 8 8 9 8 7 8 7 7
7 5 5 3 3 3 1 3 5 9 13 8 2 5 15 17 12 17 20 19 15 13 12 11 6 5 7 8 10 10 6 1 1 5 3 1 4 6 7 5 4 3 3 2 3 2 2 2 3 3 3 4 4 4 3 4 3 5 5 5 6 5 6 6 7 7 7 7 7 6 7 8 7 8 8 8 8 8 8 8 9 8 7 7 8 8
7 7 4 1 4 4 3 4 7 10 4 3 2 2 2 4 7 6 10 12 10 10 12 16 18 11 5 4 3 3 7 5 4 3 3 1 3 7 7 6 4 4 4 1 1 1 1 3 3 4 4 3 3 4 3 5 5 5 6 4 4 5 4 4 5 6 6 8 8 8 7 8 9 8 8 8 8 8 9 8 8 9 9 8 8 7
7 4 3 4 4 7 6 9 10 4 6 1 3 4 9 9 9 12 13 16 18 13 13 16 18 10 7 5 4 5 5 5 4 1 1 1 1 2 5 5 5 3 2 1 1 1 2 3 3 3 3 4 4 4 5 5 5 6 7 7 7 6 6 7 8 10 10 10 11 11 11 10 11 12 11 10 11 11 10 9 10 8 5 8 8 8
6 9 2 7 5 6 8 7 3 4 13 13 10 2 0 3 9 11 9 11 5 11 15 13 13 10 9 5 6 8 6 7 4 5 3 2 1 2 0 1 1 1 1 0 1 1 2 2 2 3 3 4 4 4 4 4 5 6 7 9 9 10 10 10 11 10 10 11 11 11 11 11 10 12 12 12 12 12 12 9 8 7 5 8 10 11
1 1 2 8 2 5 7 10 10 11 13 6 3 6 5 7 11 7 6 13 7 7 11 13 13 9 11 11 8 8 8 8 9 6 7 4 3 2 4 2 1 0 0 0 0 1 3 3 2 3 3 3 6 6 5 6 7 8 9 9 9 8 8 8 9 10 11 12 10 10 10 9 9 9 10 11 11 10 11 11 10 9 7 7 7 10
9 6 5 8 7 6 10 12 13 6 7 2 3 2 2 5 9 9 6 10 4 5 10 11 14 11 9 10 13 11 13 11 9 7 6 6 5 4 3 4 4 3 2 1 1 1 3 3 4 5 5 6 6 6 7 6 6 6 7 8 6 7 7 7 8 8 8 9 9 9 9 8 9 10 9 11 12 11 9 9 10 9 8 8 6 9
7 3 8 13 10 10 11 5 2 5 3 3 3 2 4 4 7 10 16 2 3 3 3 10 10 7 10 11 11 11 3 2 5 9 7 5 6 2 1 0 0 0 1 3 3 4 4 4 3 4 5 5 6 6 5 5 6 7 6 6 6 8 7 7 7 7 8 9 10 10 10 9 7 10 11 8 9 11 11 8 9 10 8 9 9 7
7 6 3 8 12 12 9 10 7 1 4 6 0 7 5 8 8 12 3 2 1 4 2 4 8 7 10 13 7 4 6 5 9 7 7 5 6 4 2 1 1 2 1 1 3 3 4 4 5 6 7 6 6 6 5 4 4 6 6 6 8 8 6 6 7 7 8 9 10 11 11 11 11 8 9 9 8 10 12 10 7 8 9 8 8 10
7 7 6 9 6 5 5 7 4 10 2 6 9 4 1 4 4 4 3 3 2 3 6 3 6 5 8 6 6 10 8 7 7 8 6 5 5 4 3 2 1 0 1 2 3 4 1 3 4 5 6 7 6 4 4 3 5 5 5 7 9 7 6 7 7 7 8 9 10 10 11 11 11 11 9 9 8 9 12 12 10 10 8 7 9 10
5 7 2 4 5 6 9 10 6 2 4 5 9 7 4 8 3 6 7 4 2 3 5 7 3 4 6 13 11 8 8 9 6 6 6 4 3 2 1 0 0 1 2 2 1 3 1 2 4 5 5 6 6 5 5 4 5 5 6 9 9 8 9 9 8 8 10 10 10 11 11 11 11 10 9 9 9 9 11 12 11 9 9 7 8 9
6 9 6 8 3 6 4 3 3 3 8 4 1 1 4 2 2 6 4 7 9 4 2 7 8 4 7 10 9 9 7 5 6 6 7 4 4 2 2 1 0 0 1 2 3 3 1 3 4 5 5 6 6 5 4 3 4 6 6 7 6 10 11 11 10 10 11 12 12 12 11 11 12 11 10 10 7 9 11 12 10 10 10 7 7 8
3 1 1 3 4 1 1 1 0 1 3 3 0 1 2 2 1 4 8 9 1 5 7 11 8 8 6 7 11 4 6 6 6 4 3 3 3 1 1 0 0 0 0 0 1 1 1 3 4 4 6 5 5 6 3 2 3 7 9 7 7 9 10 11 12 12 12 12 12 12 12 12 14 12 10 10 8 8 9 10 10 10 11 9 8 8
3 2 2 4 1 6 7 3 3 4 0 1 3 1 1 1 2 3 5 6 9 7 6 6 10 9 9 7 9 10 7 6 7 4 3 2 1 1 1 0 1 2 3 3 4 4 4 4 5 4 5 7 5 6 8 7 5 5 8 10 9 10 11 12 13 13 12 12 11 12 11 11 11 12 12 10 8 8 8 8 8 9 10 10 9 9
4 3 3 2 3 9 4 1 1 2 1 1 2 5 4 3 4 4 5 6 9 6 7 7 8 8 5 7 7 11 8 5 6 5 3 2 2 1 1 1 2 3 4 3 4 4 5 5 6 7 8 9 9 8 8 8 8 9 10 10 10 10 11 11 11 11 13 14 11 11 11 11 14 14 11 11 10 9 10 9 8 9 11 11 10 9
3 6 5 6 6 1 3 1 1 3 3 0 1 1 1 5 9 8 8 9 9 12 10 8 5 5 5 7 6 9 9 4 3 3 3 2 2 2 1 1 2 2 3 4 4 4 5 5 7 8 9 9 8 8 9 8 8 8 10 10 10 10 11 12 12 12 13 13 10 11 9 9 10 10 11 12 12 10 9 11 11 11 12 12 10 9
5 7 2 4 3 3 7 7 7 6 3 5 6 5 5 4 8 10 8 9 9 10 9 11 8 7 7 5 5 6 9 6 3 2 1 1 2 2 2 2 2 3 3 3 3 4 5 6 7 9 9 9 9 9 9 9 9 10 9 10 10 10 11 12 12 12 13 11 11 11 10 10 10 10 11 11 12 12 13 12 16 13 12 14 14 16
8 7 7 7 8 8 7 8 12 5 3 6 12 8 7 6 9 11 10 10 5 6 8 13 11 7 7 6 4 7 7 6 3 2 1 1 1 1 1 2 4 6 7 7 7 7 7 7 7 8 9 9 8 9 9 9 9 10 10 9 10 10 11 11 11 12 13 12 10 11 11 11 12 11 10 11 11 11 12 14 13 16 21 22 22 21
Wind_Direction
105 136 180 194 195 190 196 170 163 180 156 111 79 102 176 168 273 274 272 277 318 104 244 236 269 273 276 271 276 283 307 301 282 275 265 259 260 259 258 249 248 246 243 285 240 251 242 239 231 228 216 222 218 216 206 206 210 208 208 197 213 207 195 193 197 196 194 200 206 214 211 217 207 207 202 202 207 205 207 201 193 187 196 195 195 197
68 158 226 205 197 185 157 122 108 72 46 135 139 145 202 205 147 222 111 345 324 138 287 39 318 272 261 273 269 277 325 278 259 261 263 262 254 256 255 261 249 247 297 301 292 280 279 265 263 249 228 210 210 225 206 208 211 208 203 205 216 190 196 200 199 198 199 203 204 200 210 210 205 200 202 211 203 202 198 201 207 202 191 184 187 194
173 201 218 193 126 98 95 85 70 117 110 52 143 161 104 254 240 294 294 344 331 90 266 19 340 280 274 267 270 256 256 254 245 223 246 254 267 257 253 255 266 280 271 278 262 277 269 277 270 240 226 221 219 221 205 220 212 204 203 212 209 200 196 203 199 193 205 205 206 200 204 198 206 217 210 214 200 191 196 202 208 211 218 213 197 184
189 271 232 156 138 110 60 78 91 72 65 109 95 116 200 240 130 254 283 349 359 76 324 331 330 285 284 283 268 268 244 265 263 252 254 235 248 252 249 251 265 270 274 280 280 278 266 259 267 277 248 234 234 239 218 209 210 207 209 210 206 205 201 200 201 202 204 181 161 134 121 168 181 194 199 199 198 195 205 213 205 210 206 204 210 203
187 266 310 135 145 137 136 112 120 111 138 354 123 129 124 158 233 149 199 17 323 59 65 2 305 300 327 333 331 323 333 310 288 325 277 257 243 265 291 287 249 258 267 279 294 285 286 286 266 247 251 233 217 221 220 209 209 208 214 215 210 208 204 203 194 196 160 122 115 101 67 63 69 37 143 191 223 211 206 213 212 217 199 199 208 204
257 327 132 107 112 93 117 149 195 132 133 325 227 171 192 175 142 283 33 112 23 337 6 57 347 317 303 288 246 288 343 324 293 331 285 284 297 282 265 260 273 259 240 240 252 266 297 283 297 299 295 259 241 237 234 218 217 213 216 205 204 198 190 196 190 173 157 170 164 158 162 179 188 206 184 205 210 206 207 213 210 206 203 210 212 210
196 6 110 155 141 129 132 168 213 147 165 129 248 172 156 144 126 123 115 83 47 146 354 6 158 266 325 315 279 319 327 301 309 294 280 307 298 286 269 277 273 261 267 263 277 288 287 286 299 295 295 267 255 248 230 212 212 212 211 199 193 194 185 172 165 161 165 172 182 189 198 203 205 211 219 217 217 210 216 211 206 210 206 209 213 220
97 70 74 76 96 120 137 193 220 147 126 210 254 120 114 114 132 158 113 115 165 246 295 45 98 220 305 285 274 315 325 299 309 302 317 311 311 307 297 281 273 270 257 266 281 290 278 275 254 277 295 302 274 270 277 228 214 202 200 179 185 175 164 161 154 167 179 186 191 198 210 212 215 212 223 196 212 211 197 206 214 209 213 212 218 220
122 160 152 141 88 116 177 208 184 143 131 222 210 132 128 135 140 118 92 105 118 46 281 333 341 292 256 267 314 3 318 308 291 295 305 310 314 311 314 320 312 275 256 243 263 283 307 304 303 279 300 295 308 312 291 247 223 203 165 148 137 151 149 162 164 172 191 197 195 202 206 224 229 227 235 185 180 190 194 208 215 215 214 214 219 220
346 157 213 146 137 186 227 335 130 144 114 241 128 95 94 80 73 95 102 82 352 69 276 227 9 205 281 275 328 336 284 268 266 280 284 289 297 302 321 337 343 344 336 250 238 268 287 290 313 326 288 358 350 334 342 18 85 102 114 124 135 156 163 166 174 180 191 199 193 202 212 223 233 227 247 170 196 199 188 214 213 216 219 218 220 223
234 319 176 93 179 178 128 41 124 12 115 130 120 79 39 40 30 28 61 91 65 4 252 254 304 154 297 273 229 130 213 213 240 298 288 308 326 325 305 283 303 321 328 338 324 285 279 285 318 345 41 353 3 9 37 30 47 73 105 128 144 174 165 168 182 181 195 196 196 208 212 220 229 226 219 228 242 219 214 220 219 213 218 215 219 218
22 3 89 235 88 110 101 77 24 71 88 122 99 127 77 354 10 29 345 34 116 269 261 273 255 35 177 289 309 235 287 245 188 147 5 338 327 324 325 334 336 339 342 333 10 9 1 13 6 19 27 9 359 26 21 24 27 58 88 123 142 149 181 185 188 186 203 195 211 219 217 221 225 218 213 221 231 216 220 218 221 215 219 227 226 219
38 124 233 357 193 124 127 86 355 7 356 83 89 79 110 235 34 292 10 280 213 197 244 345 172 352 242 234 267 299 273 259 227 217 229 285 309 315 319 322 322 321 338 358 360 5 17 24 3 8 4 14 25 10 3 1 12 40 90 130 157 215 213 202 186 193 206 206 217 215 220 229 225 222 219 225 231 221 221 217 222 205 216 211 220 221
272 285 20 316 72 220 143 127 138 143 331 105 134 138 106 117 72 232 279 259 309 295 272 303 293 267 251 280 244 243 251 212 231 230 238 243 272 293 300 318 327 329 337 341 341 358 15 15 7 2 7 12 7 5 360 344 7 4 131 154 175 229 207 202 191 201 206 221 225 220 223 227 219 228 225 230 229 230 221 214 222 216 214 213 215 213
140 296 248 145 231 158 158 159 174 158 162 203 58 146 176 142 157 205 197 204 216 204 286 278 76 232 120 243 234 220 246 276 276 270 263 248 248 264 286 297 302 310 324 329 355 17 15 9 14 12 6 7 359 355 347 328 323 15 273 206 218 257 264 203 215 207 218 229 227 225 228 232 223 231 231 235 232 232 225 223 224 225 220 220 224 215
203 204 277 309 272 150 165 237 117 100 43 336 161 84 90 217 140 122 207 140 208 314 8 255 216 187 173 297 280 266 304 296 302 289 323 301 298 318 333 328 303 290 334 355 32 36 30 17 13 27 22 7 358 345 346 353 341 1 276 259 249 249 251 214 216 220 221 234 230 227 228 231 231 238 241 250 238 232 222 229 219 230 224 226 227 228
42 235 357 309 53 94 136 171 163 133 175 221 105 199 207 122 98 96 62 14 89 43 257 165 314 289 300 314 284 348 323 290 342 324 346 291 323 342 346 321 327 332 19 36 47 47 43 44 52 60 48 36 24 21 16 360 349 336 333 335 313 298 293 275 244 239 238 248 242 244 234 237 234 232 231 233 234 232 229 227 230 230 233 232 228 232
152 219 350 67 150 351 202 122 105 34 143 96 181 230 189 138 124 125 203 352 63 186 265 93 226 287 30 273 328 339 149 299 286 234 294 288 9 79 21 329 322 354 7 39 60 62 59 52 40 26 25 31 32 13 12 2 353 337 321 302 304 302 295 280 262 258 245 245 247 251 245 240 233 235 239 237 240 235 232 230 231 237 243 229 227 222
120 88 331 357 77 285 360 148 47 18 40 140 198 192 111 214 203 324 89 240 162 267 269 298 280 256 195 242 332 276 189 232 248 253 108 104 75 97 89 31 16 22 50 52 51 52 39 36 27 26 30 30 38 24 14 349 344 351 351 317 279 298 305 302 291 274 265 244 250 244 246 240 241 239 245 245 242 240 236 239 229 225 228 234 225 224
87 145 282 339 136 286 8 98 195 195 348 39 87 82 99 101 159 128 198 175 127 240 58 289 41 245 202 221 201 233 214 212 189 96 195 152 151 155 152 125 53 44 37 30 24 16 9 9 13 23 28 18 4 358 352 354 358 2 355 349 340 323 316 312 294 275 271 256 249 263 263 259 245 245 241 240 238 240 239 242 241 242 240 232 218 215
169 118 172 291 303 85 178 198 216 160 147 68 86 176 122 35 223 108 27 126 181 171 186 226 314 281 259 215 191 225 220 199 172 170 193 177 172 173 180 128 59 25 14 358 346 339 337 346 354 359 7 12 15 16 9 16 3 344 349 352 352 347 333 333 316 293 275 268 260 256 261 260 256 257 248 253 243 247 251 252 243 243 244 254 240 224
107 183 180 125 56 230 238 275 204 168 181 165 164 187 174 129 140 161 251 36 101 128 225 137 254 277 271 186 207 224 242 181 222 164 168 179 177 185 194 253 35 17 324 291 296 294 294 333 5 12 9 13 26 16 13 359 1 1 358 348 338 342 333 326 325 330 315 299 284 278 280 276 270 266 264 256 258 254 258 257 248 247 251 240 245 214
140 123 104 171 203 193 148 3 254 289 153 180 169 218 172 174 101 123 202 233 55 281 100 155 330 266 245 229 216 223 243 226 192 168 159 176 186 180 188 263 285 234 254 285 289 289 295 7 26 33 31 30 31 20 14 8 10 358 350 346 343 343 332 333 318 325 326 322 321 304 299 303 300 287 272 268 266 263 261 261 258 246 243 248 250 234
96 101 91 331 314 318 329 313 44 122 81 341 285 132 148 201 186 176 163 177 159 158 116 353 252 255 288 260 263 268 266 266 198 169 148 171 175 176 150 283 277 304 306 295 296 327 346 358 7 22 22 22 21 21 15 8 1 357 353 342 339 349 339 337 337 330 331 326 313 309 314 309 303 302 284 273 268 268 265 261 258 243 241 250 250 247
163 253 137 131 27 346 344 343 355 346 51 210 197 196 201 91 75 124 102 67 121 217 173 130 234 267 271 314 324 43 17 159 155 199 174 151 194 215 247 264 277 284 307 327 331 338 355 8 334 246 63 63 75 59 36 14 3 359 354 353 356 350 341 337 334 334 328 324 319 321 325 314 313 302 290 277 274 269 270 267 265 252 247 252 254 248
182 172 143 156 177 183 200 193 216 213 205 180 223 172 183 160 142 130 191 126 195 272 152 172 238 254 279 349 53 68 212 164 225 194 247 216 172 185 226 247 269 277 242 289 281 275 225 248 260 219 202 191 93 50 36 19 10 360 360 356 348 347 344 341 338 334 330 330 329 322 324 315 312 298 284 280 278 273 274 273 264 260 253 241 253 253
164 139 199 190 194 206 211 208 25 85 74 187 214 150 161 168 180 137 108 111 211 200 173 229 222 234 249 246 167 192 196 170 187 226 214 213 232 232 244 238 202 182 178 181 189 197 186 186 200 35 33 32 31 24 15 7 359 1 354 352 360 345 326 325 329 323 323 317 311 309 309 309 303 295 291 287 284 285 283 275 268 259 258 246 244 250
83 184 216 207 224 225 187 150 206 147 164 196 145 183 177 171 179 169 182 217 194 88 254 228 222 224 230 212 224 210 222 226 220 205 205 229 253 214 215 230 151 94 62 76 48 37 30 19 21 26 26 26 16 1 4 3 1 353 349 340 343 347 343 347 344 342 341 336 327 319 313 310 305 299 290 286 284 282 280 278 272 261 259 254 250 248
144 199 227 162 246 243 140 180 173 169 181 184 185 172 175 182 175 184 213 226 155 193 229 231 154 219 237 177 207 204 192 198 203 208 196 184 220 248 218 76 50 36 31 53 45 39 33 28 18 22 24 18 8 3 357 354 351 352 345 344 346 347 355 348 347 348 349 347 349 341 327 316 312 298 293 293 292 288 284 277 271 269 263 256 257 253
134 236 199 171 219 239 197 177 185 176 196 158 187 188 184 176 188 196 214 221 206 220 230 232 171 219 230 187 201 211 206 201 209 164 116 114 219 211 79 97 88 66 76 67 44 35 30 24 24 23 20 13 6 359 354 351 349 348 341 338 342 343 345 352 348 349 347 345 340 334 333 328 320 320 313 312 308 300 294 287 282 276 271 263 258 259
156 256 140 144 193 250 216 175 161 201 174 202 218 199 189 191 198 203 212 222 219 238 250 258 246 266 250 166 210 220 151 134 56 189 209 216 215 209 151 130 127 109 78 50 37 25 22 25 25 21 18 5 358 355 349 337 333 332 333 340 339 341 340 348 342 346 346 339 334 331 330 335 332 328 329 323 316 310 305 298 291 283 275 268 261 259
151 243 49 104 182 279 225 171 205 139 120 205 230 187 198 196 209 221 219 218 185 213 232 237 252 254 252 138 200 142 135 165 200 221 182 193 214 190 158 145 125 113 89 73 50 39 29 26 17 9 357 348 345 349 352 343 338 339 342 338 339 337 335 342 345 343 338 333 332 336 339 336 333 334 329 330 324 322 312 305 298 288 277 276 272 264
180 151 154 154 179 234 302 160 125 108 71 289 238 217 204 205 208 215 227 230 213 203 213 214 233 242 199 177 153 177 174 202 211 212 202 220 205 191 158 139 134 131 102 65 43 34 24 12 352 336 334 334 337 344 337 331 331 339 336 333 327 329 337 342 341 338 336 337 338 337 338 337 337 332 327 325 320 316 316 311 307 299 295 285 275 277
127 143 175 177 172 238 11 119 117 98 211 227 222 212 190 200 204 205 211 218 223 194 211 213 234 221 133 159 160 187 197 202 199 216 212 180 161 159 125 124 112 89 64 50 41 26 354 330 327 320 300 296 304 307 300 304 298 307 312 305 315 333 340 342 342 346 339 338 340 337 335 335 332 328 322 316 315 313 309 308 297 293 286 286 289 275
164 167 170 183 150 206 203 113 107 216 237 232 323 151 199 213 197 203 220 221 224 217 231 254 266 220 193 178 183 190 178 150 135 142 103 139 134 134 135 126 123 123 106 85 34 10 343 322 314 322 335 348 336 317 318 316 314 313 319 329 331 335 339 342 334 341 342 338 331 331 332 332 328 322 320 317 315 314 309 306 302 299 293 287 284 283
171 163 146 68 127 61 98 150 218 235 230 333 287 217 5 170 197 189 262 260 245 219 208 230 237 225 156 194 225 146 146 144 85 42 69 63 109 126 121 129 147 142 112 160 144 324 321 331 321 314 313 314 339 330 337 334 334 341 326 313 314 326 333 330 330 334 340 339 338 336 332 329 323 320 319 319 318 315 311 309 301 302 304 294 286 274
154 104 145 198 187 194 171 201 226 7 337 151 265 234 173 164 158 176 222 240 230 211 193 217 231 222 155 206 146 113 118 90 75 41 303 214 128 115 125 142 145 160 151 176 193 263 284 274 290 299 305 325 336 339 345 338 341 336 331 342 347 347 347 350 353 352 346 341 339 338 337 337 333 330 330 329 326 322 318 318 313 306 294 294 287 280
157 176 208 193 222 192 211 232 261 239 250 245 226 307 116 148 168 183 190 259 241 208 204 205 221 217 186 157 143 148 135 93 173 239 238 243 239 149 70 117 116 148 188 216 234 253 268 281 298 315 340 333 333 326 339 344 347 345 346 346 347 352 348 353 348 343 341 336 335 332 332 330 329 323 322 323 321 318 314 311 298 294 296 292 299 295
285 150 152 198 230 157 213 231 230 234 242 245 249 191 186 170 161 129 166 247 251 196 191 189 213 203 170 159 159 148 145 186 220 190 202 188 205 213 114 104 88 148 175 237 258 315 301 307 307 289 333 340 347 344 358 358 358 357 346 342 341 343 341 339 335 337 334 327 323 321 319 317 314 311 310 310 307 310 308 308 307 303 302 286 283 283
186 183 163 205 210 208 207 214 227 213 244 221 237 256 228 129 123 110 191 248 237 155 182 177 201 192 173 162 157 166 173 204 213 190 175 173 176 189 137 103 79 55 26 328 286 231 270 309 359 352 351 347 327 332 344 353 355 347 333 324 327 328 326 322 320 314 312 312 313 310 310 308 308 304 303 304 304 304 299 299 303 300 300 295 282 286
182 163 196 208 207 216 215 244 357 295 277 231 229 180 149 165 133 160 213 229 203 199 187 174 190 163 151 150 165 174 241 211 151 136 129 130 92 74 11 353 15 239 325 328 325 351 356 341 356 315 309 306 315 326 334 348 346 322 311 308 317 312 307 306 308 311 312 313 313 313 311 309 302 303 302 296 296 300 300 297 294 299 300 298 299 292
176 174 217 200 215 213 214 227 229 280 233 177 290 149 187 122 201 210 205 324 106 135 48 105 129 154 157 162 161 115 136 105 98 105 122 126 124 144 126 46 8 360 308 277 310 351 340 341 334 328 323 315 321 321 321 316 292 284 297 307 303 297 300 302 304 307 310 311 310 307 306 305 305 297 293 299 304 305 301 299 290 285 291 292 292 293
186 172 198 193 198 213 205 230 205 229 253 136 126 80 314 158 235 189 135 24 70 116 120 94 122 145 136 108 114 127 128 117 111 112 114 123 119 124 121 124 92 96 335 349 348 347 13 324 317 306 296 305 310 304 283 273 278 289 296 298 294 303 303 300 299 300 300 302 302 303 302 302 301 301 304 300 300 297 294 297 301 294 290 288 292 289
180 194 173 189 182 197 195 204 206 197 128 192 146 181 203 207 182 143 130 86 62 118 121 114 90 140 138 130 134 124 121 114 106 114 112 115 134 108 119 99 338 345 323 308 269 299 6 275 288 291 292 294 295 299 300 296 293 298 306 301 305 315 314 313 310 307 306 303 301 303 303 304 302 299 297 294 297 295 291 295 297 294 287 285 283 289
196 199 181 208 184 187 210 192 222 192 171 192 88 228 225 168 109 163 127 139 144 191 180 117 142 147 134 125 121 128 123 137 145 146 133 157 138 144 116 154 146 183 301 307 315 322 331 281 283 284 285 284 289 292 290 288 299 306 308 301 319 316 315 312 311 310 305 304 304 304 303 304 300 298 298 295 292 293 295 295 295 296 294 289 278 277
335 218 80 144 237 99 346 131 141 46 212 202 22 236 222 128 95 106 136 118 119 142 167 148 151 146 135 131 122 122 132 146 131 139 131 132 153 176 146 72 30 125 205 312 289 339 301 292 277 277 283 283 275 291 292 312 336 324 312 318 320 314 311 309 309 306 301 301 302 300 302 303 299 296 289 286 280 269 269 275 285 286 287 287 277 272
252 153 145 186 223 168 243 157 160 193 321 135 149 91 14 84 148 128 126 129 137 138 120 124 141 147 148 141 135 137 141 148 138 148 152 127 124 148 124 127 31 20 8 338 332 339 330 319 314 303 304 311 319 330 331 343 352 334 322 326 325 320 313 309 307 302 298 295 297 297 298 297 294 297 297 290 283 272 268 263 266 270 274 272 273 272
268 179 168 201 177 185 234 193 266 319 275 268 198 142 145 114 80 66 97 109 114 104 101 120 123 116 124 118 135 129 136 136 133 146 148 154 152 133 95 52 357 348 339 334 324 336 328 320 315 321 329 328 332 336 332 340 343 335 328 321 322 315 309 301 298 297 295 296 296 293 294 293 289 289 290 289 286 283 283 271 248 254 261 267 261 262
199 126 202 184 181 93 26 332 250 64 42 79 272 298 139 143 124 110 115 118 117 107 98 73 62 112 110 125 118 122 120 116 101 123 133 134 121 107 73 7 340 329 322 336 326 331 316 319 326 327 329 320 329 329 327 331 330 323 320 316 313 311 307 304 300 296 293 293 293 288 287 283 283 284 286 287 284 271 256 267 273 264 262 253 247 233
97 187 203 112 99 171 185 193 171 124 215 234 229 190 162 170 124 122 120 111 119 119 119 104 80 67 78 78 101 114 123 121 103 89 93 67 71 50 22 355 337 319 315 307 320 330 339 346 336 325 321 319 326 328 325 326 325 320 316 314 311 309 306 305 303 300 295 294 292 290 292 290 287 284 283 282 284 288 285 256 250 247 255 274 259 242
189 190 149 171 173 214 225 198 191 174 165 189 171 174 165 166 138 132 139 136 126 129 136 127 121 94 81 65 60 104 110 119 114 102 116 94 87 61 27 352 347 348 342 342 344 348 347 336 331 321 314 317 324 320 321 319 319 312 311 307 306 305 303 305 304 300 295 293 291 292 294 293 291 290 286 283 283 285 286 296 287 261 244 244 262 263